[TLELIST] Archives

 

[list_settings.list_name] Current TLEs

August 6th 2013 PST

HST 1 20580U 90037B 13217.44561633 .00001278 00000-0 78537-4 0 2962 2 20580 028.4702 309.8703 0003110 150.7741 307.8251 15.03816776 77116 ISS (ZARYA) 1 25544U 98067A 13218.15422869 .00004134 00000-0 79869-4 0 3351 2 25544 051.6495 220.7545 0003700 277.0956 200.6392 15.50182103842454 CXO 1 25867U 99040B 13218.17728747 .00000019 00000-0 00000+0 0 9324 2 25867 075.7251 336.6537 8505954 277.0430 001.1315 00.37795391 10724 ____________________________________________________________________ These 2-Line ...Continue Reading

[list_settings.list_name] Current TLEs

August 5th 2013 PST

HST 1 20580U 90037B 13215.73048880 .00001283 00000-0 78873-4 0 2954 2 20580 028.4704 321.1166 0003165 132.2805 022.7802 15.03811562 76868 ISS (ZARYA) 1 25544U 98067A 13217.37320351 .00003813 00000-0 74321-4 0 3314 2 25544 051.6487 224.6247 0003641 271.4351 164.7925 15.50172918842330 CXO 1 25867U 99040B 13218.17728747 .00000019 00000-0 00000+0 0 9324 2 25867 075.7251 336.6537 8505954 277.0430 001.1315 00.37795391 10724 ____________________________________________________________________ These 2-Line ...Continue Reading

[list_settings.list_name] Current TLEs

August 4th 2013 PST

HST 1 20580U 90037B 13215.73048880 .00001283 00000-0 78873-4 0 2954 2 20580 028.4704 321.1166 0003165 132.2805 022.7802 15.03811562 76868 ISS (ZARYA) 1 25544U 98067A 13216.40744912 .00004418 00000-0 84861-4 0 3255 2 25544 051.6486 229.4080 0003583 266.8651 176.3147 15.50167109842187 CXO 1 25867U 99040B 13218.17728747 .00000019 00000-0 00000+0 0 9324 2 25867 075.7251 336.6537 8505954 277.0430 001.1315 00.37795391 10724 ____________________________________________________________________ These 2-Line ...Continue Reading

[list_settings.list_name] Current TLEs

August 3rd 2013 PST

HST 1 20580U 90037B 13214.45596221 .00001294 00000-0 79709-4 0 2949 2 20580 028.4705 329.4733 0003254 118.5397 322.9941 15.03808478 76661 ISS (ZARYA) 1 25544U 98067A 13215.38020015 .00004882 00000-0 92948-4 0 3184 2 25544 051.6490 234.4981 0003638 263.0252 203.7253 15.50159115842029 CXO 1 25867U 99040B 13215.53153696 -.00000152 00000-0 00000+0 0 9314 2 25867 075.7028 336.7968 8509551 277.0806 000.9205 00.37796921 10713 ____________________________________________________________________ These 2-Line ...Continue Reading

[list_settings.list_name] Current TLEs

August 2nd 2013 PST

HST 1 20580U 90037B 13212.45971161 .00001143 00000-0 68966-4 0 2932 2 20580 028.4708 342.5622 0003327 098.4503 314.6691 15.03804064 76367 ISS (ZARYA) 1 25544U 98067A 13214.43197917 .00004981 00000-0 94714-4 0 3111 2 25544 051.6494 239.1958 0003657 259.1656 312.4928 15.50149383841879 CXO 1 25867U 99040B 13215.53153696 -.00000152 00000-0 00000+0 0 9314 2 25867 075.7028 336.7968 8509551 277.0806 000.9205 00.37796921 10713 ____________________________________________________________________ These 2-Line ...Continue Reading

[list_settings.list_name] Current TLEs

August 1st 2013 PST

HST 1 20580U 90037B 13212.45971161 .00001143 00000-0 68966-4 0 2932 2 20580 028.4708 342.5622 0003327 098.4503 314.6691 15.03804064 76367 ISS (ZARYA) 1 25544U 98067A 13213.24992757 .00005537 00000-0 10442-3 0 3027 2 25544 051.6492 245.0524 0003676 255.0509 195.7997 15.50138538841693 CXO 1 25867U 99040B 13215.53153696 -.00000152 00000-0 00000+0 0 9314 2 25867 075.7028 336.7968 8509551 277.0806 000.9205 00.37796921 10713 ____________________________________________________________________ These 2-Line ...Continue Reading

[list_settings.list_name] Current TLEs

July 31st 2013 PST

HST 1 20580U 90037B 13210.74839705 .00001194 00000-0 72614-4 0 2929 2 20580 028.4711 353.7828 0003381 080.8787 049.4568 15.03799098 76111 ISS (ZARYA) 1 25544U 98067A 13212.42041569 .00006129 00000-0 11475-3 0 2970 2 25544 051.6493 249.1609 0003759 248.5680 250.1592 15.50130925841567 CXO 1 25867U 99040B 13212.88599629 -.00000391 00000-0 00000+0 0 9303 2 25867 075.6823 336.9659 8511994 277.1037 000.7496 00.37798756 10702 ____________________________________________________________________ These 2-Line ...Continue Reading

[list_settings.list_name] Current TLEs

July 30th 2013 PST

HST 1 20580U 90037B 13210.74839705 .00001194 00000-0 72614-4 0 2929 2 20580 028.4711 353.7828 0003381 080.8787 049.4568 15.03799098 76111 ISS (ZARYA) 1 25544U 98067A 13211.50726947 .00006455 00000-0 12048-3 0 2900 2 25544 051.6494 253.6858 0003867 245.1037 194.4974 15.50120492841420 CXO 1 25867U 99040B 13212.88599629 -.00000391 00000-0 00000+0 0 9303 2 25867 075.6823 336.9659 8511994 277.1037 000.7496 00.37798756 10702 ____________________________________________________________________ These 2-Line ...Continue Reading

[list_settings.list_name] Current TLEs

July 29th 2013 PST

HST 1 20580U 90037B 13209.47410604 .00001189 00000-0 72239-4 0 2916 2 20580 028.4711 002.1378 0003409 068.2494 349.8851 15.03796862 75917 ISS (ZARYA) 1 25544U 98067A 13210.48677639 .00006409 00000-0 11974-3 0 2837 2 25544 051.6494 258.7422 0003870 241.6586 259.4128 15.50106184841264 CXO 1 25867U 99040B 13212.88599629 -.00000391 00000-0 00000+0 0 9303 2 25867 075.6823 336.9659 8511994 277.1037 000.7496 00.37798756 10702 ____________________________________________________________________ These 2-Line ...Continue Reading

[list_settings.list_name] Current TLEs

July 28th 2013 PST

HST 1 20580U 90037B 13207.89936182 .00001281 00000-0 78820-4 0 2908 2 20580 028.4712 012.4628 0003410 052.8889 103.3009 15.03793271 75682 ISS (ZARYA) 1 25544U 98067A 13209.39682870 .00010367 00000-0 18870-3 0 2760 2 25544 051.6494 264.1417 0003806 236.2061 298.5655 15.50100200841099 CXO 1 25867U 99040B 13210.24180944 -.00000590 00000-0 00000+0 0 9296 2 25867 075.6754 337.1012 8514124 277.1395 000.7555 00.37799333 10692 ____________________________________________________________________ These 2-Line ...Continue Reading
  • This mailing list is a public mailing list - anyone may join or leave, at any time.
  • This mailing list is announce-only.

International Space Station (ISS) / Hubble Space Telescope (HST) / Chandra X-Ray Observatory Orbital Data via EMAIL

Privacy Policy:

Private list